Find Starlink 5161

NORAD ID: 54163 Int'l Des: 2022-141 Owner: SPXS Country: US Constellation: starlink operational
LEOCIRCULAR

实时位置

正在加载3D地球...

关于 Starlink 5161

正在加载描述...

即将过境

Passes for default location (London). Set your location on the main map for personalized predictions.

高度历史

Loading altitude history...

两行轨道根数

1 54163U 22141G 26121.73758201 .00000724 00000-0 63583-4 0 9996
2 54163 53.2169 126.1474 0001228 74.8367 285.2760 15.08841864193862
Epoch: May 1, 2026 • Age: 14 hours

当前状态

高度 558.4 km
速度 7.58 km/s
星下点 -51.35°S, 38.44°E
发射日期 Oct 28, 2022
运行时间 3.5 years
类型 internet

技术详情

分类 Payload
质量 305.00 kg
干质量 290.00 kg
总质量 305.00 kg
长度 0.20 m
直径 2.80 m
跨度 9.00 m
形状 Box + pan
制造商 SPXS
平台类型 Starlink
阶段状态 In Orbit
所有者/国家 SPXS/US

Most Searched